Location: The Saddle
(36.8333°N, 80.3417°W)
Time: 17:29:58
(UTC-05:00)

Tiros 1 despin weight - All Passes

Search period start: 30 January 2023 00:00
Search period end: 09 February 2023 00:00
Orbit: 589 x 636 km, 48.2° (Epoch: 30 January)

Date Brightness Start Highest point End Pass type
(mag) Time Alt. Az. Time Alt. Az. Time Alt. Az.
30 Jan - 01:35:57 10° W 01:39:12 20° SW 01:42:27 10° S night (unlit)
30 Jan - 15:41:57 10° SSE 15:43:37 12° SE 15:45:17 10° ESE daylight
30 Jan - 17:19:54 10° SW 17:24:28 76° SE 17:28:59 10° ENE daylight
30 Jan - 19:02:17 10° W 19:06:14 29° NNW 19:10:09 10° NE visible
30 Jan - 20:45:33 10° NW 20:48:44 19° N 20:51:53 10° NE visible
30 Jan - 22:27:17 10° NW 22:31:13 30° NNE 22:35:06 10° E night (unlit)
31 Jan - 00:08:31 10° WNW 00:12:54 67° SW 00:17:14 10° SE night (unlit)
31 Jan - 15:54:23 10° S 15:58:05 24° SE 16:01:45 10° E daylight
31 Jan - 17:34:44 10° WSW 17:39:16 61° NNW 17:43:44 10° NE daylight
31 Jan - 19:17:48 10° WNW 19:21:21 22° NNW 19:24:53 10° NE visible
31 Jan - 21:00:38 10° NW 21:03:58 20° N 21:07:16 10° ENE visible
31 Jan - 22:41:56 10° NW 22:46:12 45° NNE 22:50:27 10° ESE night (unlit)
01 Feb - 00:23:35 10° WNW 00:27:32 33° SW 00:31:28 10° SSE night (unlit)
01 Feb - 16:08:15 10° SSW 16:12:39 47° SE 16:17:02 10° ENE daylight
01 Feb - 17:49:56 10° W 17:54:11 37° NNW 17:58:23 10° NE daylight
01 Feb - 19:33:17 10° NW 19:36:34 19° N 19:39:48 10° NE visible
01 Feb - 21:15:27 10° NW 21:19:08 24° NNE 21:22:47 10° ENE visible
01 Feb - 22:56:38 10° NW 23:01:05 79° NE 23:05:28 10° ESE night (unlit)
02 Feb - 00:39:16 10° W 00:42:02 16° SW 00:44:47 10° S night (unlit)
02 Feb - 14:43:46 10° SSE 14:46:24 15° SE 14:49:01 10° E daylight
02 Feb - 16:22:45 10° SW 16:27:21 90° WNW 16:31:55 10° NE daylight
02 Feb - 18:05:22 10° WNW 18:09:14 26° NNW 18:13:03 10° NE visible
02 Feb - 19:48:33 10° NW 19:51:47 19° N 19:54:59 10° NE visible
02 Feb - 21:30:08 10° NW 21:34:12 33° NNE 21:38:14 10° E visible
02 Feb - 23:11:28 10° WNW 23:15:47 54° SW 23:20:03 10° SE night (unlit)
03 Feb - 14:56:52 10° SSW 15:00:53 30° SE 15:04:52 10° ENE daylight
03 Feb - 16:37:41 10° WSW 16:42:10 52° NNW 16:46:37 10° NE daylight
03 Feb - 18:20:53 10° WNW 18:24:22 21° N 18:27:49 10° NE visible
03 Feb - 20:03:31 10° NW 20:06:59 21° N 20:10:24 10° ENE visible
03 Feb - 21:44:46 10° NW 21:49:09 53° NNE 21:53:28 10° ESE visible
03 Feb - 23:26:38 10° WNW 23:30:22 27° SW 23:34:03 10° SSE night (unlit)
04 Feb - 15:10:56 10° SW 15:15:29 59° SE 15:19:59 10° ENE daylight
04 Feb - 16:52:57 10° W 16:57:07 33° NNW 17:01:15 10° NE daylight
04 Feb - 18:36:18 10° NW 18:39:34 19° N 18:42:48 10° NE visible
04 Feb - 20:18:17 10° NW 20:22:07 27° NNE 20:25:54 10° ENE visible
04 Feb - 21:59:29 10° NW 22:03:57 86° SW 22:08:21 10° SE night (unlit)
04 Feb - 23:42:44 10° W 23:44:49 13° SW 23:46:52 10° SSW night (unlit)
05 Feb - 13:45:55 10° S 13:49:09 19° SE 13:52:22 10° E daylight
05 Feb - 15:25:35 10° WSW 15:30:12 76° NW 15:34:47 10° NE daylight
05 Feb - 17:08:25 10° WNW 17:12:11 24° NNW 17:15:55 10° NE daylight
05 Feb - 18:51:28 10° NW 18:54:47 19° N 18:58:03 10° NE visible
05 Feb - 20:32:56 10° NW 20:37:09 38° NNE 20:41:17 10° E visible
05 Feb - 22:14:24 10° WNW 22:18:37 43° SW 22:22:47 10° SSE night (unlit)
06 Feb - 13:59:24 10° SSW 14:03:39 37° SE 14:07:53 10° ENE daylight
06 Feb - 15:40:38 10° W 15:45:03 45° NNW 15:49:26 10° NE daylight
06 Feb - 17:23:54 10° WNW 17:27:20 20° N 17:30:44 10° NE daylight
06 Feb - 19:06:22 10° NW 19:09:57 23° NNE 19:13:30 10° ENE visible
06 Feb - 20:47:34 10° NW 20:52:02 63° NNE 20:56:25 10° ESE visible
06 Feb - 22:29:43 10° W 22:33:08 22° SW 22:36:31 10° S night (unlit)
07 Feb - 12:36:02 10° SSE 12:37:27 11° SE 12:38:52 10° ESE daylight
07 Feb - 14:13:40 10° SW 14:18:16 72° SE 14:22:51 10° ENE daylight
07 Feb - 15:55:57 10° W 16:00:01 30° NNW 16:04:04 10° NE daylight
07 Feb - 17:39:15 10° NW 17:42:32 19° N 17:45:47 10° NE daylight
07 Feb - 19:21:04 10° NW 19:25:03 29° NNE 19:28:58 10° E visible
07 Feb - 21:02:19 10° WNW 21:06:47 71° SW 21:11:10 10° SE visible
07 Feb - 22:46:56 10° WSW 22:47:32 10° SW 22:48:09 10° SW night (unlit)
08 Feb - 12:48:12 10° S 12:51:52 23° SE 12:55:31 10° E daylight
08 Feb - 14:28:25 10° WSW 14:33:01 64° NNW 14:37:35 10° NE daylight
08 Feb - 16:11:25 10° WNW 16:15:06 23° NNW 16:18:46 10° NE daylight
08 Feb - 17:54:19 10° NW 17:57:44 20° N 18:01:06 10° NE daylight
08 Feb - 19:35:41 10° NW 19:40:01 44° NNE 19:44:17 10° E visible
08 Feb - 21:17:18 10° WNW 21:21:23 35° SW 21:25:24 10° SSE visible
